Tracking 31027 objects as of 19-Jul-2025
HD Live streaming from Space Station
objects crossing your sky now

IRIDIUM 47 DEB

Track IRIDIUM 47 DEB now!
10-day predictions


NORAD ID: 40254
Int'l Code: 1997-082P
Perigee: 662.4 km
Apogee: 809.5 km
Inclination: 86.0 °
Period: 99.4 minutes
Semi major axis: 7106 km
RCS: Unknown
Launch date: December 20, 1997
Source: United States (US)
Launch site: AIR FORCE WESTERN TEST RANGE (AFWTR)

Note: This is SATELLITE DEBRIS
Your satellite tracking list
FLOCK 4V 13
Track 1 satellite(s)




NASA's NSSDC Master Catalog

Two Line Element Set (TLE):
1 40254U 97082P   25198.22731584  .00019017  00000-0  46696-2 0  9999
2 40254  86.0005  20.0086 0103508 206.5876 152.9999 14.49025013557171
Source of the keplerian elements: AFSPC